Skip Page Navigation
NASA JPL Caltech
NASA Logo - Jet Propulsion Laboratory + View the NASA Portal
+ Near-Earth Object (NEO) Program
Search JPL
JPL Home Earth Solar System Stars & Galaxies Technology
JPL Solar System Dynamics
BODIES ORBITS EPHEMERIDES TOOLS PHYSICAL DATA DISCOVERY FAQ SITE MAP
JPL Small-Body Database Browser
Search: [ help ]  
4581 Asclepius (1989 FC)
Classification: Apollo [NEO, PHA]          SPK-ID: 2004581
Ephemeris | Orbit Diagram | Orbital Elements | Physical Parameters | Discovery Circumstances | Close-Approach Data ]

[ show orbit diagram ]
Orbital Elements at Epoch 2457000.5 (2014-Dec-09.0) TDB
Reference: JPL 51 (heliocentric ecliptic J2000)
 Element Value Uncertainty (1-sigma)   Units 
e .3570076092871783 5.4865e-08  
a 1.02245803611192 5.2475e-09 AU
q .6574327370431401 5.7524e-08 AU
i 4.919256603287525 5.5294e-06 deg
node 180.2866084783589 7.3352e-05 deg
peri 255.2986035344092 7.2434e-05 deg
M 20.46623419144604 7.0638e-06 deg
tp 2456979.031480076325
(2014-Nov-17.53148008)
7.2576e-06 JED
period 377.6301541469361
1.03
2.9071e-06
7.959e-09
d
yr
n .9533137013733384 7.3389e-09 deg/d
Q 1.3874833351807 7.1209e-09 AU
  Orbit Determination Parameters
   # obs. used (total)      180  
   # delay obs. used      2  
   # Doppler obs. used      2  
   data-arc span      9628 days (26.36 yr)  
   first obs. used      1989-03-31  
   last obs. used      2015-08-10  
   planetary ephem.      DE431  
   SB-pert. ephem.      SB431-BIG16  
   condition code      0  
   fit RMS      .52295  
   data source      ORB  
   producer      Otto Matic  
   solution date      2015-Aug-11 06:17:40  

Additional Information
 Earth MOID = .00327135 AU 
 T_jup = 5.914 
[ show covariance matrix ]

Ephemeris | Orbit Diagram | Orbital Elements | Physical Parameters | Discovery Circumstances | Close-Approach Data ]

Physical Parameter Table
Parameter Symbol Value Units Sigma Reference Notes
absolute magnitude H 20.7 mag n/a MPO267726  

4581 Asclepius (1989 FC)          Discovered 1989-Mar-31 by Holt and Thomas at Palomar
Reference: DISCOVERY.DBLast Updated: 2003-08-29

[ hide close-approach data ]
Close-Approach Data   ...sorted by Date/Time (TDB)
Date/Time (TDB) Time Uncertainty
(days_HH:MM)
Body Nominal Distance (AU) Minimum Distance (AU) Maximum Distance (AU) V-relative (km/s) V-infinity (km/s) JD (TDB) Time Uncertainty (minutes) Semi-major axis (km) Semi-minor axis (km) range-LOV angle (deg) N-sigma BP Orbit Ref. Reference Modified
1901-Jun-27 09:22 00:13 Venus 0.110556080463194 0.110279361416689 0.110833758946949 12.6448360237866 12.6432825648117 2415562.890509179 13.0833684258471 18561.631028565 10.7045445053365 43.8999662900266 829527.005782055 T 51 CATAB v2.0c-linF95 2015-Aug-11 06:17:43 2015-Aug-11 06:18
1909-Aug-01 16:44 00:07 Earth 0.448215161440747 0.447770711560901 0.448659629500942 23.8725239865221 23.8722749690956 2418520.197313357 7.22209199296063 22528.480405479 6.31522032693705 -6.0481549803739 1012703.82306773 T 51 CATAB v2.0c-linF95 2015-Aug-11 06:17:43 2015-Aug-11 06:18
1910-Aug-13 20:26 00:11 Earth 0.197524012119859 0.196974203738945 0.198073764467623 16.2594251208939 16.2585954643322 2418897.351690844 11.3182157869391 26099.1216101639 6.90848710126649 -12.702231415183 774883.828534028 T 51 CATAB v2.0c-linF95 2015-Aug-11 06:17:43 2015-Aug-11 06:18
1911-Aug-26 00:01 00:14 Earth 0.0827620877927899 0.0822122798712208 0.0833158087900236 8.72817603570815 8.7244866911375 2419274.500855181 13.9287058923563 18133.7304939744 5.62744782877405 41.9192743746092 905360.098788191 T 51 CATAB v2.0c-linF95 2015-Aug-11 06:17:43 2015-Aug-11 06:18
1911-Oct-18 22:44 01:32 Venus 0.0514890629714256 0.0509305063027304 0.0520503091729758 8.32329833046673 8.31822969857157 2419328.447537511 91.9281477688234 15826.8090610592 11.8826292807736 18.4246672721085 128146.293785104 T 51 CATAB v2.0c-linF95 2015-Aug-11 06:17:43 2015-Aug-11 06:18
1912-Jul-21 02:36 01:39 Earth 0.297926902664699 0.297564907900661 0.29828942934719 7.42470327501304 7.42349863088958 2419604.608404942 98.8699718175309 6162.80793095235 16.5973632224567 7.37014167093999 190666.626056352 T 51 CATAB v2.0c-linF95 2015-Aug-11 06:17:43 2015-Aug-11 06:18
1912-Oct-21 18:19 02:36 Earth 0.278452131703102 0.278426047883673 0.278478330706424 9.74776231943551 9.74678061953257 2419697.263263622 155.78097045672 5942.47872920489 9.57202827087465 -81.6967254821645 2834672.19236124 T 51 CATAB v2.0c-linF95 2015-Aug-11 06:17:43 2015-Aug-11 06:18
1913-Jun-21 06:19 01:31 Earth 0.382167230627255 0.382052040859112 0.382282455455854 8.8930752120946 8.89229119399204 2419939.762968196 90.6730917131139 2645.79859811217 21.9413404298205 20.0335511396389 556658.73740967 T 51 CATAB v2.0c-linF95 2015-Aug-11 06:17:43 2015-Aug-11 06:18
1913-Dec-01 07:32 02:40 Earth 0.32961835652904 0.329616899404376 0.32961983212552 12.4084093518179 12.4077578790664 2420102.813870611 159.881309090029 2969.69819199587 12.0854981385049 -88.9765612157721 3034739.69814764 T 51 CATAB v2.0c-linF95 2015-Aug-11 06:17:43 2015-Aug-11 06:18
1914-May-27 16:00 01:31 Earth 0.38774714423249 0.387669669667417 0.38782463335835 9.10544999259118 9.10469528219228 2420280.166477727 91.3616749097414 2384.82609013042 23.2947996496172 -36.5231012835818 937544.883930285 T 51 CATAB v2.0c-linF95 2015-Aug-11 06:17:43 2015-Aug-11 06:18
1915-Jan-08 21:41 02:54 Earth 0.303300412163846 0.303269347801141 0.303331478137731 10.7966568474721 10.7958431435228 2420506.403232676 173.698324591454 1322.9667325753 7.26723285354161 -35.4378338477792 2518323.29929893 T 51 CATAB v2.0c-linF95 2015-Aug-11 06:17:43 2015-Aug-11 06:18
1915-Apr-30 18:53 01:42 Earth 0.320082956723344 0.319759946584655 0.320406275654497 8.13507130280285 8.13404797267794 2420618.287081551 102.08093389889 6894.32041291112 17.6446572667329 -16.7815576752723 461668.211672241 T 51 CATAB v2.0c-linF95 2015-Aug-11 06:17:43 2015-Aug-11 06:18
1916-Mar-20 07:37 00:12 Earth 0.132136073326507 0.131346010181098 0.132930699206431 7.07472355951102 7.07187274477377 2420942.817240228 12.4215740771865 14097.2703124868 3.42089898309285 0.234036115263877 10801.7545535172 T 51 CATAB v2.0c-linF95 2015-Aug-11 06:17:43 2015-Aug-11 06:18
1917-Mar-28 02:36 00:15 Earth 0.136291751753169 0.13549045497214 0.137092476985976 14.7332833036578 14.7319563284728 2421315.608597759 15.1166223235496 35172.6826516853 2.62913887423581 -0.766451252885867 80300.7357574377 T 51 CATAB v2.0c-linF95 2015-Aug-11 06:17:43 2015-Aug-11 06:18
1918-Apr-09 04:20 00:12 Earth 0.401174081712738 0.400408197905165 0.401939973705658 22.708513018593 22.7082205403337 2421692.680453246 12.0870888617586 38273.3344334101 1.57969689799855 -0.683293426953782 402674.336124354 T 51 CATAB v2.0c-linF95 2015-Aug-11 06:17:43 2015-Aug-11 06:18
1922-Mar-14 22:14 00:21 Venus 0.114921354061155 0.114047215421422 0.115794848679827 15.1994875598956 15.1982443140207 2423128.426686045 21.3221153887483 39902.1300852532 11.2960669725054 -4.16129442506796 90837.9213998301 T 51 CATAB v2.0c-linF95 2015-Aug-11 06:17:43 2015-Aug-11 06:18
1925-Jun-21 17:07 00:29 Venus 0.0920544824672775 0.0917697961098812 0.0923441085887132 10.8835836417341 10.8814159609038 2424323.212852380 29.0767007151935 28291.4150352678 9.69862739136111 57.4394472727804 867914.723818167 T 51 CATAB v2.0c-linF95 2015-Aug-11 06:17:43 2015-Aug-11 06:18
1933-Jul-31 05:30 00:05 Earth 0.481381230719757 0.481062985999359 0.481699486799151 24.8873962934645 24.8871738878836 2427284.729134094 4.81138884467308 16202.5375756552 6.13433964817046 -5.87527134592937 1095732.50028392 T 51 CATAB v2.0c-linF95 2015-Aug-11 06:17:43 2015-Aug-11 06:18
1934-Aug-12 14:29 00:06 Earth 0.226048289344477 0.225759726620187 0.226336839585713 17.1451065605428 17.1444190495433 2427662.103125903 5.50547744634831 13879.9082052129 6.88681640661908 -11.2510207267001 802374.228655442 T 51 CATAB v2.0c-linF95 2015-Aug-11 06:17:43 2015-Aug-11 06:18
1935-Aug-25 00:13 00:05 Earth 0.0642078242409276 0.0640312921221221 0.0643851551858202 9.43861493116418 9.43421731501096 2428039.509263827 5.31424708506104 7806.41682925551 5.88476568796956 52.6956358721349 838215.914678574 T 51 CATAB v2.0c-linF95 2015-Aug-11 06:17:43 2015-Aug-11 06:18
1935-Oct-23 04:44 00:43 Venus 0.0681831649569381 0.068023963362831 0.0683426035953644 8.1911013658353 8.18721223456471 2428098.696919983 43.0033258932243 4934.80697024836 11.1240792738093 31.292514032839 295616.670355204 T 51 CATAB v2.0c-linF95 2015-Aug-11 06:17:43 2015-Aug-11 06:18
1936-Jul-24 06:50 00:31 Earth 0.287264797558073 0.287148130018267 0.287381533477747 7.23199378976681 7.23071113311541 2428373.785013906 31.4799389504832 1757.11045563156 15.618055247771 6.40797017778779 167303.13497193 T 51 CATAB v2.0c-linF95 2015-Aug-11 06:17:43 2015-Aug-11 06:18
1936-Oct-18 03:15 00:47 Earth 0.270425096879445 0.270418256004724 0.27043194938381 9.33425777258234 9.33320214645449 2428459.635524448 46.8658904558509 1810.59004515416 9.16269027999878 -83.0517355846267 2813761.4976535 T 51 CATAB v2.0c-linF95 2015-Aug-11 06:17:43 2015-Aug-11 06:18
1937-Jun-22 23:27 00:23 Earth 0.380077688574943 0.380055104388085 0.380100275691435 8.84766907312031 8.84687669849833 2428707.476830557 22.6568769307905 349.128242581116 20.7838685344257 24.4607581530922 710107.16709553 T 51 CATAB v2.0c-linF95 2015-Aug-11 06:17:43 2015-Aug-11 06:18
1937-Nov-29 04:17 00:36 Earth 0.328714008648258 0.328704365783565 0.328723657411364 12.3642175366076 12.3635619364929 2428866.678737937 35.6446357105748 688.913385356157 12.7007008952215 87.4755664077774 2872893.10762581 T 51 CATAB v2.0c-linF95 2015-Aug-11 06:17:43 2015-Aug-11 06:18
1938-May-29 00:06 00:17 Earth 0.389894129656986 0.38987189917636 0.389916360201932 9.12994021226058 9.12919167136832 2429047.504194134 16.9078485610515 732.41301606946 25.2959900072943 -14.5727894135659 370675.36558143 T 51 CATAB v2.0c-linF95 2015-Aug-11 06:17:43 2015-Aug-11 06:18
